Regional Weather Roundup
Issued by NWS

Home | Current Version | Previous Version | Text Only | Print | Product List | Glossary On
Versions: 1 2 3 4 5 6 7 8 9 10 11 12 13 14 15 16 17 18 19 20 21 22 23 24 25 26 27 28 29 30 31 32 33 34 35 36 37 38 39 40 41 42 43 44 45 46 47 48 49 50
000
ASUS45 KREV 300910
RWRNV
NEVADA REGIONAL WEATHER ROUNDUP
NATIONAL WEATHER SERVICE RENO NV
200 AM PDT SAT MAY 30 2015

NOTE: "FAIR" INDICATES FEW OR NO CLOUDS BELOW 12,000 FEET WITH NO
SIGNIFICANT WEATHER AND/OR OBSTRUCTIONS TO VISIBILITY.

NVZ001-003-004-301000-
WESTERN NEVADA

CITY           SKY/WX    TMP DP  RH WIND       PRES   REMARKS
RENO           MOCLDY    65  40  39 SW5       30.05S
CARSON CITY    FAIR      59  32  36 CALM      30.07F
MINDEN         FAIR      54  36  50 CALM      30.07
SLIDE MTN        N/A     50  21  32 W28         N/A
PYRAMID LAKE     N/A     70 N/A N/A S6          N/A
FALLON         NOT AVBL
LOVELOCK       MOCLDY    61  44  53 NW5       29.99R
HAWTHORNE      CLEAR     66  43  42 CALM      30.03S
$$

NVZ002-CAZ072-073-301000-
NORTHERN AND CENTRAL SIERRA

CITY           SKY/WX    TMP DP  RH WIND       PRES   REMARKS
S. LAKE TAHOE  MOCLDY    50  39  66 CALM      30.17F
TRUCKEE        MOCLDY    45  37  76 S3        30.16F
SQUAW VLY 8000   N/A     54  28  37 S13         N/A
SUSANVILLE     CLEAR     55  36  47 NW5       30.04
BLUE CANYON    PTCLDY    62  37  39 SE5       30.12F
MAMMOTH LAKES  FAIR      45  30  57 CALM      30.23F
BRIDGEPORT     FAIR      49  26  41 CALM      30.19S
$$

NVZ030-031-036-301000-
NORTHERN NEVADA

CITY           SKY/WX    TMP DP  RH WIND       PRES   REMARKS
ELKO           PTCLDY    57  44  62 E5        30.09S
WINNEMUCCA     MOCLDY    58  45  62 SE5       30.01S
WENDOVER       CLEAR     57  48  72 NW3       30.10F
$$

NVZ035-037-301000-
CENTRAL NEVADA

CITY           SKY/WX    TMP DP  RH WIND       PRES   REMARKS
ELY            CLEAR     52  42  69 S9        30.19S
EUREKA           N/A     62  37  39 NW5       30.12F
$$

NVZ013-014-301000-
SOUTH CENTRAL NEVADA

CITY           SKY/WX    TMP DP  RH WIND       PRES   REMARKS
TONOPAH        CLEAR     61  27  27 NW3       30.11S
$$

NVZ017-020-022-301000-
SOUTHERN NEVADA

CITY           SKY/WX    TMP DP  RH WIND       PRES   REMARKS
LAS VEGAS      PTCLDY    80  25  13 S7        29.88R
N. LAS VEGAS   PTCLDY    79  21  11 N3        29.91R
NELLIS AFB     PTCLDY    78  18  10 NE10      29.89R
HENDERSON      PTCLDY    76  27  16 S6        29.94S
MERCURY        CLEAR     74  24  15 NE6       29.97R
$$



USA.gov is the U.S. government's official web portal to all federal, state and local government web resources and services.